sat.trackr.live / text

‹ back to catalog

ONEWEB-0503

NORAD 54121 · 2022-138J

PAYLOAD ACTIVE UNKNOWN

§ Identity

Operator
Country
UK
Launch date
2022-10-22
Launch site
SRILR
Launch vehicle
Mass (kg)
RCS (m²)

Purposes: comms

External: N2YO · Heavens-Above · Gunter

§ Orbital elements

Epoch: 2026-05-25T00:24:10.058112Z

Period
109.11 min
Inclination
87.9160°
Eccentricity
0.0002063
Mean motion
13.19726095 rev/d
Perigee alt
1,184.2 km
Apogee alt
1,187.3 km
Semi-major
7,563.9 km
B*
1.4342e-4
RAAN
309.5773°
Arg perigee
91.3503°
Mean anomaly
268.7866°
Rev number
17,376

§ Raw data

ONEWEB-05031 54121U 22138J   26145.01678308  .00000070  00000+0  14342-3 0  99932 54121  87.9160 309.5773 0002063  91.3503 268.7866 13.19726095173762

JSON: /api/v1/satellites/54121 · /tle

For live sub-satellite position, see the globe view (requires WebGL).

§ Visibility from observer

Set your observer location to see the next 7 days of passes ≥ 10°. The values pass through the URL so the page stays shareable.

No JS? Fill the form by hand. The geolocation button needs JavaScript.